[TLELIST] Archives

 

[list_settings.list_name] Current TLEs

May 17th 2021 PST

HST 1 20580U 90037B 21136.72697560 .00000561 00000-0 23009-4 0 9999 2 20580 28.4700 275.0048 0002861 81.1938 60.7791 15.09639176506256 ISS (ZARYA) 1 25544U 98067A 21137.40145537 .00001439 00000-0 34257-4 0 9995 2 25544 51.6433 134.9944 0003107 11.2543 133.8911 15.49014609283823 CXO 1 25867U 99040B 21139.01841356 .00000875 00000-0 00000-0 0 9994 2 25867 55.8404 256.4682 8281108 226.3496 359.8597 0.37807566 10323 ____________________________________________________________________ These 2-Line ...Continue Reading

[list_settings.list_name] Current TLEs

May 16th 2021 PST

HST 1 20580U 90037B 21135.80236027 .00000587 00000-0 24575-4 0 9991 2 20580 28.4701 281.1226 0002860 71.7715 75.2317 15.09638499506117 ISS (ZARYA) 1 25544U 98067A 21135.83782071 .00001818 00000-0 41138-4 0 9997 2 25544 51.6435 142.7293 0003154 4.9000 54.9750 15.49010084283588 CXO 1 25867U 99040B 21136.37341302 .00000814 00000-0 00000-0 0 9999 2 25867 55.8942 256.5647 8276676 226.3266 359.8626 0.37804618 10329 ____________________________________________________________________ These 2-Line ...Continue Reading

[list_settings.list_name] Current TLEs

May 15th 2021 PST

HST 1 20580U 90037B 21134.59933003 .00000550 00000-0 22322-4 0 9992 2 20580 28.4702 289.0826 0002838 59.7162 16.2199 15.09637244505937 ISS (ZARYA) 1 25544U 98067A 21135.19891203 .00001788 00000-0 40596-4 0 9997 2 25544 51.6434 145.8883 0003113 3.7625 90.9322 15.49007115283486 CXO 1 25867U 99040B 21136.37341302 .00000814 00000-0 00000-0 0 9999 2 25867 55.8942 256.5647 8276676 226.3266 359.8626 0.37804618 10329 ____________________________________________________________________ These 2-Line ...Continue Reading

[list_settings.list_name] Current TLEs

May 14th 2021 PST

HST 1 20580U 90037B 21134.15254779 .00000556 00000-0 22674-4 0 9996 2 20580 28.4703 292.0388 0002836 55.0012 107.9965 15.09636946506079 ISS (ZARYA) 1 25544U 98067A 21134.36910038 .00001716 00000-0 39297-4 0 9990 2 25544 51.6436 149.9938 0003140 359.8449 144.4178 15.49003230283357 CXO 1 25867U 99040B 21136.37260438 .00000814 00000-0 00000-0 0 9999 2 25867 55.8943 256.5648 8276672 226.3266 359.7525 0.37804628 10314 ____________________________________________________________________ These 2-Line ...Continue Reading

[list_settings.list_name] Current TLEs

May 13th 2021 PST

HST 1 20580U 90037B 21132.88868712 .00000738 00000-0 33746-4 0 9996 2 20580 28.4705 300.4014 0002808 42.1280 78.5613 15.09637067505879 ISS (ZARYA) 1 25544U 98067A 21133.39163368 .00000814 00000-0 22937-4 0 9999 2 25544 51.6438 154.8286 0003065 355.8309 94.0782 15.48995615283208 CXO 1 25867U 99040B 21133.72893831 .00000728 00000-0 00000-0 0 9998 2 25867 55.9489 256.6589 8272282 226.3069 359.9109 0.37804506 10303 ____________________________________________________________________ These 2-Line ...Continue Reading

[list_settings.list_name] Current TLEs

May 12th 2021 PST

HST 1 20580U 90037B 21131.83270196 .00000515 00000-0 20170-4 0 9993 2 20580 28.4706 307.3882 0002777 31.2835 99.0772 15.09635071505528 ISS (ZARYA) 1 25544U 98067A 21132.16955024 .00000805 00000-0 22776-4 0 9992 2 25544 51.6438 160.8760 0003059 351.2781 119.3279 15.48991656283011 CXO 1 25867U 99040B 21133.72893831 .00000728 00000-0 00000-0 0 9998 2 25867 55.9489 256.6589 8272282 226.3069 359.9109 0.37804506 10303 ____________________________________________________________________ These 2-Line ...Continue Reading

[list_settings.list_name] Current TLEs

May 11th 2021 PST

HST 1 20580U 90037B 21130.90998997 .00000488 00000-0 18579-4 0 9995 2 20580 28.4707 313.4932 0002748 21.7340 124.0367 15.09634365505384 ISS (ZARYA) 1 25544U 98067A 21131.39828032 .00000039 00000-0 88730-5 0 9996 2 25544 51.6436 164.6926 0003036 348.4195 138.4622 15.48988324282894 CXO 1 25867U 99040B 21131.08472698 .00000666 00000-0 00000+0 0 9999 2 25867 56.0074 256.7526 8266743 226.2921 359.9779 0.37803062 21433 ____________________________________________________________________ These 2-Line ...Continue Reading

[list_settings.list_name] Current TLEs

May 10th 2021 PST

HST 1 20580U 90037B 21129.91807050 .00000466 00000-0 17206-4 0 9995 2 20580 28.4708 320.0560 0002707 11.1303 133.1862 15.09633629505432 ISS (ZARYA) 1 25544U 98067A 21130.43379951 -.00000449 00000-0 00000+0 0 9995 2 25544 51.6442 169.4633 0002923 343.2297 161.8142 15.48986740282740 CXO 1 25867U 99040B 21131.08472698 .00000666 00000-0 00000+0 0 9999 2 25867 56.0074 256.7526 8266743 226.2921 359.9779 0.37803062 21433 ____________________________________________________________________ These 2-Line ...Continue Reading

[list_settings.list_name] Current TLEs

May 9th 2021 PST

HST 1 20580U 90037B 21129.26053398 .00000468 00000-0 17369-4 0 9993 2 20580 28.4708 324.4065 0002689 4.1520 159.5794 15.09633231505134 ISS (ZARYA) 1 25544U 98067A 21129.46439663 .00000834 00000-0 23299-4 0 9990 2 25544 51.6443 174.2532 0002904 338.8794 156.8686 15.48988150282591 CXO 1 25867U 99040B 21131.08472698 .00000666 00000-0 00000+0 0 9999 2 25867 56.0074 256.7526 8266743 226.2921 359.9779 0.37803062 21433 ____________________________________________________________________ These 2-Line ...Continue Reading

[list_settings.list_name] Current TLEs

May 8th 2021 PST

HST 1 20580U 90037B 21127.92704934 .00000497 00000-0 19123-4 0 9995 2 20580 28.4709 333.2293 0002635 349.8517 112.4527 15.09632506504935 ISS (ZARYA) 1 25544U 98067A 21128.36207690 .00000366 00000-0 14807-4 0 9996 2 25544 51.6444 179.7055 0002844 333.5186 131.2445 15.48983420282429 CXO 1 25867U 99040B 21128.43953678 .00000663 00000-0 00000-0 0 9994 2 25867 56.0518 256.8303 8260144 226.2953 359.8905 0.37804167 10293 ____________________________________________________________________ These 2-Line ...Continue Reading
  • This mailing list is a public mailing list - anyone may join or leave, at any time.
  • This mailing list is announce-only.

International Space Station (ISS) / Hubble Space Telescope (HST) / Chandra X-Ray Observatory Orbital Data via EMAIL

Privacy Policy:

Private list